Regional Weather Roundup
Issued by NWS Lake Charles, LA

Home | Current Version | Previous Version | Text Only | Print | Product List | Glossary On
Versions: 1 2 3 4 5 6 7 8 9 10 11 12 13 14 15 16 17 18 19 20 21 22 23 24 25 26 27 28 29 30 31 32 33 34 35 36 37 38 39 40 41 42 43 44 45 46 47 48 49 50
000
ASUS44 KLCH 030310
RWRLCH
RWRLCH
REGIONAL WEATHER ROUNDUP
NATIONAL WEATHER SERVICE LAKE CHARLES LA
1000 PM CDT WED SEP 02 2015

Note: "fair" indicates few or no clouds below 12,000 feet with no
significant weather and/or obstructions to visibility.


ACROSS SOUTHEAST TEXAS

CITY           SKY/WX    TMP DP  RH WIND       PRES   REMARKS
BEAUMONT       CLEAR     79  75  87 E6        29.95S
BEAUMONT CITY    N/A     76  73  91 CALM      29.97S
ORANGE         CLEAR    N/A N/A N/A CALM      29.98S
JASPER         CLEAR     77  70  79 CALM      30.00S
$$

ACROSS CENTRAL LOUISIANA

CITY           SKY/WX    TMP DP  RH WIND       PRES   REMARKS
LEESVILLE      CLEAR     75  71  88 E2        29.97
FULLERTON        N/A     71  69  93 CALM      29.96S
ALEXANDRIA INT CLEAR     73  70  90 CALM      29.97S
ESLER FIELD    CLEAR     75  70  84 CALM      29.99R
DERIDDER         N/A     75  70  83 CALM      30.00R
OAKDALE          N/A     71  70  96 CALM      29.99R FOG
OPELOUSAS        N/A     74  71  90 CALM      29.99S
$$

ACROSS SOUTHWEST AND SOUTH CENTRAL LOUISIANA

CITY           SKY/WX    TMP DP  RH WIND       PRES   REMARKS
SULPHUR        CLEAR     76  75  96 E3        29.98R
LAKE CHARLES   CLEAR     76  74  93 E5        29.97R
CHENNAULT INT  CLEAR     75  73  94 CALM      29.98R
CAMERON PHI    MOCLDY    77  73  88 E7        30.00R
DEQUINCY         N/A     74  74 100 CALM      29.98R
JENNINGS         N/A     75  73  93 SE3       29.99R
LAFAYETTE      PTCLDY    76  73  91 CALM      29.99R
NEW IBERIA     MOCLDY    76  74  93 E3        30.00R
ABBEVILLE        N/A     74  74  98 E3        30.00R
PATTERSON      MOCLDY    75  72  88 SE3       30.01R
SALT POINT       N/A     77  76  96 VRB3      29.99R
$$

SELECTED SITES ACROSS THE REGION

CITY           SKY/WX    TMP DP  RH WIND       PRES   REMARKS
HOUSTON BUSH   PTCLDY    76  74  93 NE3       29.96R
HOUSTON HOBBY  PTCLDY    79  75  87 E3        29.94S
GALVESTON      PTCLDY    81  75  82 SE8       29.95S
COLLEGE STAT   CLEAR     79  70  74 SE9       29.96S
CONROE         MOCLDY    74  70  87 CALM      29.97R
HUNTSVILLE     CLEAR     77  69  76 CALM      29.98R
LUFKIN         CLEAR     76  67  73 E3        29.98R
SHREVEPORT     PTCLDY    81  67  62 CALM      29.97S
MONROE         CLEAR     77  72  84 E3        29.99R
NATCHEZ MS     PTCLDY    73  66  78 CALM      30.01S
BATON ROUGE    MOCLDY    76  71  85 NE3       29.99S
N.O. INTL ARPT MOCLDY    79  71  76 CALM      30.01R
SLIDELL        CLOUDY    75  74  96 CALM      30.00R
$$

MARINE REPORTS

STATION/POSITION TIME  TEMP    WIND        PRES    VSBY  WAVE
                       AIR SEA DIR/SP/G                  HT/PER
                 (UTC) (F)     (DEG/KT/KT) (MB)    (MI)  (FT/S)
BUOY 30 S HIGH I 0250   82 85  150/  8/ 10 1014.0R         3/ 5
SEA RIM ST PARK  0300   78      50/  4/  4 1015.0R
PORT ARTHUR      0200      85  100/  6/  8 1014.3R
SABINE PASS N    0200   81 84  130/  6/  8 1014.3R
TEXAS POINT      NOT AVBL
CALCASIEU PASS   0200   81 83  140/  8/ 11 1013.5R
LK CHARLES BEACH 0200   78 86                N/A
MARSH ISLAND     0200   81     150/  9/ 10   N/A           0
FRESH WATER LOCK 0200   77 83   40/  4/  5 1014.7R
AMERADA PASS     0200   78 83   70/  3/  6 1014.9R
$$


USA.gov is the U.S. government's official web portal to all federal, state and local government web resources and services.